[[{"header":{"parameterUnit":"m.s-1","parameterCategory":1,"la1":30.2991,"la2":30.254,"lo1":-89.0895,"lo2":-89.0444,"dy":0.0017,"dx":0.0017,"nx":28,"ny":28,"refTime":"2025-12-14T03:00:00:Z","depth":0,"parameterNumber":2,"parameterNumberName":"U-component_of_WINDS"},"data":[0,0,0,0,0,0,0,0,0,0,0,0,0,0,0,0,0,0,0,0,0,0,0,0,0,0,0,0,0,0,0,0,0,0,0,0,0,0,0,0,0,0,0,0,0,0,0,0,0,0,0,0,0,0,0,0,0,0,-1.2102,-1.2102,0,-1.2166,-1.2167,-1.2168,-1.2149,-1.2147,-1.2146,-1.2145,-1.2212,-1.2215,-1.2218,0,0,0,0,0,0,0,0,0,0,0,0,0,-1.1962,-1.1965,-1.2102,-1.2102,-1.2103,-1.2166,-1.2167,-1.2168,-1.2149,-1.2147,-1.2146,-1.2144,-1.2211,-1.2214,-1.2218,0,0,0,0,0,0,0,0,0,0,0,0,0,-1.2024,-1.1966,-1.2101,-1.2101,-1.2102,-1.2166,-1.2167,-1.2168,-1.2149,-1.2147,-1.2145,-1.2143,-1.221,-1.2214,-1.2219,-1.2287,0,0,-1.2233,-1.2235,0,0,0,0,0,0,0,0,-1.2021,-1.203,-1.2101,-1.2101,-1.2102,-1.2147,-1.2142,-1.2208,-1.215,-1.2131,-1.2145,-1.2142,-1.2192,-1.2198,-1.2215,-1.229,-1.2293,-1.2233,-1.2236,-1.2238,-1.2239,0,0,0,0,0,0,0,-1.2017,-1.2027,-1.2127,-1.2102,-1.2103,-1.2098,-1.2105,-1.2155,-1.2172,-1.2133,-1.2131,-1.2139,-1.2192,-1.221,-1.2216,-1.2294,-1.2233,-1.2237,-1.224,-1.2241,-1.2429,-1.2431,0,0,0,0,0,0,-1.2012,-1.2023,-1.2125,-1.2129,-1.2056,-1.2102,-1.211,-1.2135,-1.2172,-1.2175,-1.2141,-1.2138,-1.2203,-1.2211,-1.2218,-1.2301,-1.2238,-1.2242,-1.2245,-1.2427,-1.2429,-1.2432,0,0,0,0,0,0,-1.2009,-1.2021,-1.2123,-1.2076,-1.2088,-1.2107,-1.2135,-1.2137,-1.2155,-1.2178,-1.2181,-1.2156,-1.2202,-1.2212,-1.227,-1.2303,-1.2244,-1.2248,-1.2424,-1.2427,-1.243,-1.2467,0,0,0,0,0,0,-1.2005,-1.202,-1.2046,-1.2077,-1.2091,-1.2173,-1.2137,-1.214,-1.2163,-1.216,-1.2193,-1.2196,-1.2201,-1.2263,-1.2274,-1.2308,-1.2252,-1.2421,-1.2425,-1.2429,-1.2463,-1.2471,-1.2478,0,0,0,0,0,-1.2,-1.2054,-1.2048,-1.206,-1.2124,-1.2175,-1.2184,-1.2188,-1.2166,-1.2192,-1.2207,-1.2195,-1.2297,-1.2269,-1.2282,-1.2318,-1.2419,-1.2424,-1.2429,-1.246,-1.247,-1.2478,0,0,0,0,0,0,-1.2028,-1.2058,-1.2051,-1.2117,-1.2144,-1.2172,-1.2206,-1.2198,-1.2232,-1.2228,-1.2231,-1.2239,-1.2299,-1.2314,-1.2282,-1.2385,-1.2355,-1.2363,-1.2374,-1.2384,-1.2391,-1.2387,-1.2255,0,0,0,0,0,-1.2042,-1.2081,-1.2105,-1.2161,-1.2174,-1.2188,-1.221,-1.2211,-1.2239,-1.225,-1.2269,-1.2296,-1.2334,-1.236,-1.2396,-1.2464,-1.2472,-1.2495,-1.2503,-1.2509,-1.2516,-1.2553,-1.2564,-1.2448,-1.2448,-1.2448,0,0,-1.2071,-1.2092,-1.2117,-1.2167,-1.2188,-1.2228,-1.2197,-1.2241,-1.2271,-1.2257,-1.2313,-1.2327,-1.2358,-1.2422,-1.2451,-1.2436,-1.2549,-1.2515,-1.252,-1.2524,-1.256,-1.2571,-1.2581,-1.2452,-1.2451,-1.245,0,0,-1.2145,-1.2165,-1.2214,-1.2235,-1.2266,-1.2274,-1.2286,-1.2315,-1.2324,-1.238,-1.237,-1.2405,-1.2471,-1.2493,-1.2513,-1.2594,-1.2585,-1.2606,-1.2647,-1.2683,-1.2692,-1.27,-1.273,-1.274,-1.2613,-1.2613,-1.2613,0,-1.2178,-1.2238,-1.224,-1.2285,-1.2307,-1.2294,-1.2344,-1.2364,-1.2406,-1.2422,-1.2404,-1.2486,-1.2506,-1.2575,-1.2594,-1.2611,-1.2624,-1.2603,-1.2691,-1.2699,-1.2706,-1.2735,-1.2746,-1.2615,-1.2615,-1.2615,-1.2614,0,-1.2277,-1.2319,-1.2354,-1.2394,-1.242,-1.2467,-1.2476,-1.2502,-1.25,-1.251,-1.2567,-1.259,-1.2631,-1.2647,-1.2646,-1.2716,-1.2706,-1.2689,-1.2659,-1.272,-1.2747,-1.2757,-1.2618,-1.2618,-1.2617,-1.2616,0,0,-1.2373,-1.2412,-1.2425,-1.2443,-1.2476,-1.2508,-1.2554,-1.2594,-1.2616,-1.2645,-1.2684,-1.2739,-1.2724,-1.2746,-1.2747,-1.2779,-1.2842,-1.2759,-1.2759,-1.2774,-1.2921,-1.2934,-1.2946,-1.2835,-1.2837,-1.2839,-1.2918,0,-1.245,-1.2531,-1.2534,-1.2608,-1.2646,-1.2634,-1.2674,-1.2698,-1.2709,-1.2743,-1.2754,-1.2793,-1.277,-1.2783,-1.2814,-1.2828,-1.2872,-1.2822,-1.2872,-1.2874,-1.2866,-1.296,-1.2974,-1.3048,-1.2929,-1.293,-1.2932,0,-1.2553,-1.2584,-1.2662,-1.2689,-1.2705,-1.2741,-1.2777,-1.2809,-1.2837,-1.2842,-1.2866,-1.2862,-1.2909,-1.2875,-1.294,-1.2906,-1.2926,-1.2936,-1.2939,-1.2945,-1.2908,-1.297,-1.3072,-1.3084,-1.2948,-1.2947,-1.2946,0,-1.2616,-1.2677,-1.2732,-1.2748,-1.278,-1.2805,-1.282,-1.2845,-1.2868,-1.2899,-1.2915,-1.2951,-1.2971,-1.2999,-1.3004,-1.2979,-1.3069,-1.3036,-1.3075,-1.3075,-1.3096,-1.3095,-1.3204,-1.3107,-1.3107,-1.3107,-1.3106,0,-1.2703,-1.2752,-1.2761,-1.2795,-1.2848,-1.285,-1.2903,-1.2915,-1.2938,-1.2974,-1.2964,-1.2998,-1.3003,-1.3038,-1.3042,-1.3095,-1.3104,-1.311,-1.311,-1.3111,-1.3111,-1.3126,-1.3121,-1.311,-1.3109,-1.3108,-1.3108,0,-1.2784,-1.2792,-1.2851,-1.2876,-1.2883,-1.2922,-1.2944,-1.2976,-1.2984,-1.303,-1.304,-1.3054,-1.3094,-1.3102,-1.315,-1.3153,-1.3216,-1.3211,-1.3207,-1.3207,-1.3246,-1.3243,-1.337,-1.3387,-1.3277,-1.3278,-1.3279,0,-1.284,-1.2877,-1.2906,-1.2929,-1.2945,-1.2983,-1.3006,-1.3008,-1.3033,-1.3066,-1.3094,-1.3134,-1.3166,-1.3231,-1.3245,-1.3281,-1.3278,-1.332,-1.3283,-1.3283,-1.328,-1.3278,-1.3282,-1.3327,-1.3329,-1.333,-1.333,0,-1.294,-1.2941,-1.2975,-1.3011,-1.3039,-1.3067,-1.3093,-1.3112,-1.3118,-1.3146,-1.3187,-1.3212,-1.326,-1.33,-1.3336,-1.3351,-1.3342,-1.3341,-1.3353,-1.3355,-1.3351,-1.3354,-1.3228,-1.3339,-1.3338,-1.3337,-1.3337,-1.3337,-1.3011,-1.3043,-1.3068,-1.3106,-1.3126,-1.315,-1.3182,-1.3193,-1.3228,-1.3267,-1.3266,-1.3311,-1.3336,-1.3384,-1.3401,-1.3436,-1.3423,-1.3439,-1.3443,-1.3447,-1.3451,-1.3344,-1.3442,-1.3442,-1.3442,-1.3442,-1.3442,0,-1.311,-1.3125,-1.316,-1.3197,-1.3227,-1.3214,-1.3243,-1.3269,-1.3308,-1.3332,-1.3364,-1.3411,-1.3448,-1.3464,-1.3502,-1.3527,-1.3523,-1.3536,-1.3535,-1.3539,-1.3461,-1.3448,-1.3538,-1.3538,-1.3538,-1.3538,-1.3538,-1.3538,-1.3166,-1.3219,-1.3224,-1.3287,-1.3302,-1.3346,-1.3363,-1.3386,-1.3405,-1.3458,-1.3489,-1.3499,-1.352,-1.3558,-1.3592,-1.3595,-1.361,-1.3625,-1.3627,-1.3554,-1.3544,-1.3535,-1.3523,-1.3628,-1.3628,-1.3702,-1.3703,-1.3703]},{"header":{"parameterUnit":"m.s-1","parameterCategory":1,"la1":30.2991,"la2":30.254,"lo1":-89.0895,"lo2":-89.0444,"dy":0.0017,"dx":0.0017,"nx":28,"ny":28,"refTime":"2025-12-14T03:00:00:Z","depth":0,"parameterNumber":3,"parameterNumberName":"V-component_of_WINDS"},"data":[0,0,0,0,0,0,0,0,0,0,0,0,0,0,0,0,0,0,0,0,0,0,0,0,0,0,0,0,0,0,0,0,0,0,0,0,0,0,0,0,0,0,0,0,0,0,0,0,0,0,0,0,0,0,0,0,0,0,-9.4892,-9.4893,0,-9.5017,-9.5018,-9.502,-9.4922,-9.4918,-9.4913,-9.4909,-9.503,-9.5037,-9.5044,0,0,0,0,0,0,0,0,0,0,0,0,0,-9.4563,-9.4569,-9.4892,-9.4893,-9.4895,-9.5017,-9.5018,-9.502,-9.4922,-9.4917,-9.4912,-9.4908,-9.5027,-9.5036,-9.5044,0,0,0,0,0,0,0,0,0,0,0,0,0,-9.4698,-9.4572,-9.4892,-9.4861,-9.486,-9.5016,-9.5018,-9.502,-9.4924,-9.4917,-9.4911,-9.4905,-9.5025,-9.5035,-9.5045,-9.5236,0,0,-9.5078,-9.5083,0,0,0,0,0,0,0,0,-9.4691,-9.4711,-9.4864,-9.4864,-9.4862,-9.4947,-9.4946,-9.5093,-9.4925,-9.4899,-9.4909,-9.4902,-9.5007,-9.5019,-9.5055,-9.5242,-9.5247,-9.5079,-9.5085,-9.509,-9.5093,0,0,0,0,0,0,0,-9.4682,-9.4705,-9.4941,-9.4866,-9.4865,-9.4839,-9.4852,-9.4974,-9.4986,-9.4901,-9.4894,-9.4911,-9.5005,-9.5046,-9.5058,-9.5249,-9.5079,-9.5088,-9.5095,-9.5099,-9.56,-9.5606,0,0,0,0,0,0,-9.4676,-9.4697,-9.4937,-9.4945,-9.476,-9.485,-9.4864,-9.4926,-9.4985,-9.4988,-9.4916,-9.4906,-9.503,-9.5045,-9.5061,-9.529,-9.509,-9.51,-9.5106,-9.5593,-9.5601,-9.5609,0,0,0,0,0,0,-9.4669,-9.4698,-9.4932,-9.482,-9.4847,-9.4863,-9.4933,-9.4932,-9.4972,-9.4996,-9.4997,-9.4955,-9.5026,-9.5046,-9.5194,-9.5293,-9.5105,-9.5114,-9.5585,-9.5595,-9.5605,-9.5749,0,0,0,0,0,0,-9.466,-9.4697,-9.4771,-9.4822,-9.4854,-9.5065,-9.4939,-9.4939,-9.4992,-9.498,-9.5033,-9.5036,-9.5023,-9.5179,-9.5205,-9.5304,-9.5123,-9.5576,-9.5589,-9.5602,-9.5735,-9.5763,-9.5786,0,0,0,0,0,-9.4649,-9.4804,-9.4775,-9.4804,-9.4947,-9.5071,-9.5089,-9.5073,-9.5,-9.5074,-9.509,-9.5034,-9.5278,-9.5195,-9.5223,-9.5327,-9.5569,-9.5585,-9.5601,-9.5724,-9.5757,-9.5786,0,0,0,0,0,0,-9.476,-9.481,-9.4778,-9.4955,-9.501,-9.5054,-9.5147,-9.5108,-9.5183,-9.5168,-9.5142,-9.5155,-9.5311,-9.5333,-9.524,-9.5516,-9.5412,-9.5434,-9.5496,-9.5528,-9.5553,-9.5544,-9.5131,0,0,0,0,0,-9.4806,-9.4906,-9.4942,-9.5094,-9.5124,-9.5132,-9.5185,-9.5168,-9.5222,-9.5244,-9.527,-9.5324,-9.5412,-9.5471,-9.5553,-9.5738,-9.5748,-9.5823,-9.5849,-9.5869,-9.5889,-9.5989,-9.6023,-9.566,-9.566,-9.5659,0,0,-9.49,-9.494,-9.5003,-9.5118,-9.5159,-9.5261,-9.5151,-9.5263,-9.5338,-9.526,-9.5403,-9.5424,-9.5482,-9.565,-9.5724,-9.5673,-9.5992,-9.5889,-9.5906,-9.5914,-9.6009,-9.6043,-9.6074,-9.567,-9.5668,-9.5667,0,0,-9.5125,-9.5165,-9.5297,-9.5341,-9.5405,-9.5409,-9.5441,-9.5493,-9.5505,-9.5648,-9.5593,-9.568,-9.5833,-9.5877,-9.592,-9.6164,-9.6116,-9.6191,-9.6324,-9.6423,-9.6451,-9.6476,-9.6565,-9.6596,-9.621,-9.621,-9.6211,0,-9.5233,-9.5387,-9.5369,-9.5487,-9.5539,-9.5477,-9.561,-9.5652,-9.5739,-9.5776,-9.5717,-9.591,-9.5944,-9.6122,-9.6182,-9.6218,-9.6253,-9.6185,-9.6449,-9.6474,-9.6497,-9.6581,-9.6614,-9.6219,-9.6218,-9.6217,-9.6216,0,-9.5518,-9.5625,-9.5724,-9.5814,-9.5877,-9.6001,-9.6001,-9.6066,-9.6044,-9.6054,-9.6201,-9.6241,-9.6331,-9.6372,-9.6349,-9.6547,-9.6514,-9.6453,-9.6348,-9.6541,-9.662,-9.6651,-9.6232,-9.6229,-9.6226,-9.6224,0,0,-9.5815,-9.5896,-9.5933,-9.5974,-9.6041,-9.6122,-9.6244,-9.6335,-9.6393,-9.6454,-9.6556,-9.6688,-9.6633,-9.6681,-9.6663,-9.675,-9.6942,-9.6678,-9.6679,-9.6727,-9.7164,-9.721,-9.7248,-9.6911,-9.6917,-9.6922,-9.7159,0,-9.6044,-9.626,-9.6248,-9.6449,-9.6548,-9.6492,-9.6597,-9.6649,-9.6662,-9.6746,-9.6759,-9.6854,-9.6773,-9.6803,-9.6885,-9.6901,-9.703,-9.6884,-9.7004,-9.7008,-9.6993,-9.7288,-9.7337,-9.7559,-9.7189,-9.7195,-9.7198,0,-9.634,-9.6417,-9.6629,-9.6684,-9.6725,-9.6821,-9.6905,-9.6987,-9.7044,-9.7047,-9.7103,-9.7072,-9.7193,-9.7085,-9.7252,-9.7153,-9.7201,-9.7217,-9.7225,-9.7236,-9.7116,-9.7308,-9.763,-9.7664,-9.7246,-9.7242,-9.7239,0,-9.6538,-9.6693,-9.6841,-9.6877,-9.6945,-9.7014,-9.7044,-9.7096,-9.7152,-9.7225,-9.7261,-9.7346,-9.7392,-9.7457,-9.7449,-9.7371,-9.762,-9.751,-9.7625,-9.7626,-9.768,-9.7677,-9.8015,-9.771,-9.7709,-9.7709,-9.7708,0,-9.6795,-9.6927,-9.6931,-9.7022,-9.7169,-9.7154,-9.7298,-9.7321,-9.7368,-9.7461,-9.7415,-9.7503,-9.7487,-9.7574,-9.7568,-9.7708,-9.7728,-9.7733,-9.773,-9.7739,-9.7738,-9.777,-9.7755,-9.7717,-9.7716,-9.7714,-9.7712,0,-9.7041,-9.7049,-9.7206,-9.7259,-9.7275,-9.7381,-9.7424,-9.7509,-9.7519,-9.7637,-9.7664,-9.7679,-9.7779,-9.7778,-9.7891,-9.7887,-9.8059,-9.8037,-9.8041,-9.8037,-9.8152,-9.8142,-9.8523,-9.8573,-9.8235,-9.8238,-9.8241,0,-9.7205,-9.7306,-9.7371,-9.7432,-9.7468,-9.7566,-9.7625,-9.7613,-9.7675,-9.775,-9.7827,-9.7924,-9.8001,-9.8164,-9.8183,-9.827,-9.8251,-9.8379,-9.8263,-9.8269,-9.8254,-9.8249,-9.8259,-9.8401,-9.8405,-9.8408,-9.8411,0,-9.7497,-9.7497,-9.7584,-9.7675,-9.7747,-9.7817,-9.7881,-9.7933,-9.7928,-9.8,-9.8105,-9.8165,-9.8283,-9.838,-9.8464,-9.8492,-9.8452,-9.8447,-9.8478,-9.8488,-9.8487,-9.849,-9.8104,-9.8438,-9.8435,-9.8433,-9.8432,-9.8431,-9.7708,-9.7796,-9.7856,-9.7956,-9.8004,-9.8066,-9.8149,-9.8171,-9.8259,-9.8357,-9.8343,-9.846,-9.8515,-9.8625,-9.8661,-9.8751,-9.8705,-9.875,-9.8762,-9.8774,-9.8787,-9.8472,-9.8766,-9.8765,-9.8764,-9.8763,-9.8763,0,-9.7998,-9.8035,-9.8127,-9.8221,-9.8299,-9.8256,-9.8325,-9.8393,-9.8498,-9.8554,-9.8633,-9.8753,-9.8847,-9.8875,-9.8966,-9.9032,-9.9016,-9.9056,-9.9052,-9.9059,-9.8822,-9.8786,-9.9069,-9.9068,-9.9068,-9.9068,-9.9068,-9.9068,-9.8159,-9.8307,-9.8314,-9.8485,-9.8519,-9.8636,-9.868,-9.8736,-9.8781,-9.8919,-9.8999,-9.9017,-9.9062,-9.9156,-9.924,-9.9246,-9.9281,-9.9331,-9.9329,-9.9106,-9.9076,-9.9046,-9.9013,-9.9338,-9.9339,-9.9558,-9.9561,-9.9562]}]]